Dades meteomassalio
Diari Summary for Maig 13, 2017 Units:  Metric    English   Both
« Previous Day
Next Day »
Diari Semanal Mensual Anual Personalitzat
  Maxima: Minima: Mijana:
Temperatura: 24.3 °C 10.4 °C 17.8 °C
Rosada: 13.8 °C 7.8 °C 10.3 °C
Humitat: 85 % 39 % 64 %
Velocitat del vent: 29.6 km/h 0.0 km/h 5.1 km/h
Racha vent: 29.6 km/h - -
Vent:- - SSW
Pressio: 1019.2 hPa 1011.7 hPa -
Pluja: 0.8 mm    
Historical Graphs
 
 
Tabular Data for Maig 13, 2017
Time Temperature Dew Point Pressure Wind Wind Speed Wind Gust Humidity Rainfall Rate (Hourly) solar Conditions
00:03 18.2 °C 9.3 °C 1011.7 hPa WNW 5.6 km/h 5.6 km/h 56 % 0.0 mm 0.0 W/m2 CLR
00:08 17.9 °C 9.5 °C 1011.7 hPa NNW 3.7 km/h 3.7 km/h 58 % 0.0 mm 0.0 W/m2 CLR
00:13 17.6 °C 9.4 °C 1011.7 hPa Calm     59 % 0.0 mm 0.0 W/m2 CLR
00:18 17.3 °C 9.4 °C 1012.1 hPa Calm     60 % 0.0 mm 0.0 W/m2 CLR
00:23 17.1 °C 9.5 °C 1011.7 hPa Calm     61 % 0.0 mm 0.0 W/m2 CLR
00:28 16.8 °C 9.5 °C 1012.1 hPa Calm     62 % 0.0 mm 0.0 W/m2 CLR
00:30 16.7 °C 9.7 °C 1012.1 hPa Calm     63 % 0.0 mm 0.0 W/m2 CLR
00:35 16.4 °C 9.6 °C 1012.1 hPa Calm     64 % 0.0 mm 0.0 W/m2 CLR
00:40 16.2 °C 9.6 °C 1012.1 hPa Calm     65 % 0.0 mm 0.0 W/m2 CLR
00:45 16.2 °C 9.6 °C 1011.7 hPa WNW 6.4 km/h 6.4 km/h 65 % 0.0 mm 0.0 W/m2 CLR
00:50 16.3 °C 9.7 °C 1012.1 hPa Calm     65 % 0.0 mm 0.0 W/m2 CLR
00:55 16.1 °C 9.5 °C 1012.1 hPa Calm     65 % 0.0 mm 0.0 W/m2 CLR
01:00 15.9 °C 9.6 °C 1012.1 hPa Calm     66 % 0.0 mm 0.0 W/m2 CLR
01:05 15.8 °C 9.5 °C 1012.1 hPa Calm     66 % 0.0 mm 0.0 W/m2 CLR
01:10 15.7 °C 9.6 °C 1012.1 hPa Calm     67 % 0.0 mm 0.0 W/m2 CLR
01:15 15.5 °C 9.4 °C 1012.1 hPa Calm     67 % 0.0 mm 0.0 W/m2 CLR
01:20 15.4 °C 9.5 °C 1012.1 hPa Calm     68 % 0.0 mm 0.0 W/m2 CLR
01:25 15.2 °C 9.3 °C 1012.1 hPa Calm     68 % 0.0 mm 0.0 W/m2 CLR
01:30 15.1 °C 9.4 °C 1012.1 hPa Calm     69 % 0.0 mm 0.0 W/m2 CLR
01:35 14.7 °C 9.3 °C 1012.1 hPa Calm     70 % 0.0 mm 0.0 W/m2 CLR
01:40 14.3 °C 9.3 °C 1012.1 hPa WNW 1.6 km/h 1.6 km/h 72 % 0.0 mm 0.0 W/m2 CLR
01:45 14.2 °C 9.4 °C 1012.1 hPa Calm     73 % 0.0 mm 0.0 W/m2 CLR
01:50 14.3 °C 9.5 °C 1012.1 hPa Calm     73 % 0.0 mm 0.0 W/m2 CLR
01:54 14.3 °C 9.5 °C 1012.1 hPa Calm     73 % 0.0 mm 0.0 W/m2 CLR
01:59 14.3 °C 9.6 °C 1012.1 hPa Calm     73 % 0.0 mm 0.0 W/m2 CLR
02:04 14.2 °C 9.4 °C 1012.1 hPa Calm     73 % 0.0 mm 0.0 W/m2 CLR
02:09 13.9 °C 9.2 °C 1012.1 hPa Calm     73 % 0.0 mm 0.0 W/m2 CLR
02:14 13.8 °C 9.3 °C 1012.4 hPa Calm     74 % 0.0 mm 0.0 W/m2 CLR
02:19 13.8 °C 9.1 °C 1012.1 hPa Calm     73 % 0.0 mm 0.0 W/m2 CLR
02:24 13.8 °C 9.3 °C 1012.1 hPa Calm     74 % 0.0 mm 0.0 W/m2 CLR
02:29 13.8 °C 9.2 °C 1012.1 hPa Calm     74 % 0.0 mm 0.0 W/m2 CLR
02:34 13.6 °C 9.1 °C 1012.4 hPa Calm     74 % 0.0 mm 0.0 W/m2 CLR
02:39 13.6 °C 9.2 °C 1012.4 hPa Calm     75 % 0.0 mm 0.0 W/m2 CLR
02:44 13.6 °C 9.3 °C 1012.4 hPa Calm     75 % 0.0 mm 0.0 W/m2 CLR
02:49 13.6 °C 9.2 °C 1012.4 hPa Calm     75 % 0.0 mm 0.0 W/m2 CLR
02:54 13.6 °C 9.4 °C 1012.4 hPa Calm     76 % 0.0 mm 0.0 W/m2 CLR
02:59 13.5 °C 9.3 °C 1012.4 hPa Calm     76 % 0.0 mm 0.0 W/m2 CLR
03:04 13.3 °C 9.2 °C 1012.4 hPa Calm     76 % 0.0 mm 0.0 W/m2 CLR
03:09 13.2 °C 9.3 °C 1012.4 hPa Calm     77 % 0.0 mm 0.0 W/m2 CLR
03:14 12.9 °C 9.2 °C 1012.4 hPa Calm     78 % 0.0 mm 0.0 W/m2 CLR
03:19 12.7 °C 9.2 °C 1012.4 hPa Calm     79 % 0.0 mm 0.0 W/m2 CLR
03:24 12.5 °C 9.2 °C 1012.4 hPa Calm     80 % 0.0 mm 0.0 W/m2 CLR
03:29 12.4 °C 9.2 °C 1012.4 hPa Calm     81 % 0.0 mm 0.0 W/m2 CLR
03:34 12.5 °C 9.2 °C 1012.4 hPa Calm     80 % 0.0 mm 0.0 W/m2 CLR
03:39 12.5 °C 9.2 °C 1012.4 hPa Calm     80 % 0.0 mm 0.0 W/m2 CLR
03:44 12.4 °C 9.1 °C 1012.4 hPa Calm     80 % 0.0 mm 0.0 W/m2 CLR
03:49 12.6 °C 9.0 °C 1012.4 hPa Calm     79 % 0.0 mm 0.0 W/m2 CLR
03:54 12.5 °C 8.9 °C 1012.4 hPa Calm     79 % 0.0 mm 0.0 W/m2 CLR
03:59 12.4 °C 8.8 °C 1012.4 hPa Calm     79 % 0.0 mm 0.0 W/m2 CLR
04:04 12.3 °C 8.9 °C 1012.4 hPa Calm     80 % 0.0 mm 0.0 W/m2 CLR
04:09 12.2 °C 8.8 °C 1012.8 hPa Calm     80 % 0.0 mm 0.0 W/m2 CLR
04:14 12.0 °C 8.7 °C 1012.4 hPa Calm     80 % 0.0 mm 0.0 W/m2 CLR
04:19 11.9 °C 8.6 °C 1012.8 hPa Calm     80 % 0.0 mm 0.0 W/m2 CLR
04:24 11.8 °C 8.4 °C 1012.8 hPa Calm     80 % 0.0 mm 0.0 W/m2 CLR
04:29 11.6 °C 8.4 °C 1012.8 hPa Calm     81 % 0.0 mm 0.0 W/m2 CLR
04:30 11.6 °C 8.4 °C 1012.8 hPa Calm     81 % 0.0 mm 0.0 W/m2 CLR
04:35 11.4 °C 8.4 °C 1012.8 hPa Calm     82 % 0.0 mm 0.0 W/m2 CLR
04:40 11.3 °C 8.4 °C 1012.8 hPa Calm     82 % 0.0 mm 0.0 W/m2 CLR
04:45 11.4 °C 8.5 °C 1012.8 hPa Calm     82 % 0.0 mm 0.0 W/m2 CLR
04:50 11.5 °C 8.6 °C 1013.1 hPa Calm     82 % 0.0 mm 0.0 W/m2 CLR
04:55 11.5 °C 8.6 °C 1013.1 hPa Calm     82 % 0.0 mm 0.0 W/m2 CLR
05:00 11.5 °C 8.6 °C 1013.1 hPa Calm     82 % 0.0 mm 0.0 W/m2 CLR
05:05 11.4 °C 8.3 °C 1013.1 hPa Calm     81 % 0.0 mm 0.0 W/m2 CLR
05:10 11.3 °C 8.4 °C 1013.1 hPa Calm     82 % 0.0 mm 0.0 W/m2 CLR
05:15 11.3 °C 8.3 °C 1013.1 hPa Calm     82 % 0.0 mm 0.0 W/m2 CLR
05:20 11.3 °C 8.1 °C 1013.1 hPa Calm     81 % 0.0 mm 0.0 W/m2 CLR
05:25 11.2 °C 8.0 °C 1013.1 hPa Calm     81 % 0.0 mm 0.0 W/m2 CLR
05:30 11.0 °C 8.1 °C 1013.1 hPa Calm     82 % 0.0 mm 0.0 W/m2 CLR
05:35 10.9 °C 8.0 °C 1013.4 hPa Calm     82 % 0.0 mm 0.0 W/m2 CLR
05:40 10.9 °C 8.2 °C 1013.4 hPa Calm     83 % 0.0 mm 0.0 W/m2 CLR
05:45 11.0 °C 8.2 °C 1013.4 hPa Calm     83 % 0.0 mm 0.0 W/m2 CLR
05:50 11.1 °C 8.3 °C 1013.4 hPa Calm     83 % 0.0 mm 0.0 W/m2 CLR
05:55 11.3 °C 8.5 °C 1013.4 hPa Calm     83 % 0.0 mm 0.0 W/m2 CLR
06:00 11.4 °C 8.4 °C 1013.4 hPa Calm     82 % 0.0 mm 0.0 W/m2 CLR
06:05 11.4 °C 8.2 °C 1013.4 hPa Calm     81 % 0.0 mm 0.0 W/m2 CLR
06:10 11.4 °C 8.4 °C 1013.4 hPa Calm     82 % 0.0 mm 0.0 W/m2 CLR
06:15 11.4 °C 8.2 °C 1013.4 hPa Calm     81 % 0.0 mm 0.0 W/m2 CLR
06:20 11.2 °C 8.0 °C 1013.4 hPa Calm     81 % 0.0 mm 0.0 W/m2 CLR
06:25 10.9 °C 8.0 °C 1013.4 hPa Calm     82 % 0.0 mm 0.0 W/m2 CLR
06:30 10.8 °C 8.1 °C 1013.4 hPa Calm     83 % 0.0 mm 0.0 W/m2 CLR
06:35 10.8 °C 8.1 °C 1013.4 hPa Calm     83 % 0.0 mm 0.0 W/m2 OVC
06:40 10.8 °C 8.0 °C 1013.4 hPa Calm     83 % 0.0 mm 0.0 W/m2 OVC
06:45 10.8 °C 8.0 °C 1013.4 hPa Calm     83 % 0.0 mm 5.0 W/m2 OVC
06:50 10.7 °C 7.9 °C 1013.8 hPa Calm     83 % 0.0 mm 7.0 W/m2 BKN
06:55 10.6 °C 7.9 °C 1013.8 hPa Calm     84 % 0.0 mm 9.0 W/m2 BKN
07:00 10.5 °C 7.9 °C 1013.8 hPa Calm     84 % 0.0 mm 12.0 W/m2 BKN
07:05 10.4 °C 7.8 °C 1013.8 hPa Calm     84 % 0.0 mm 14.0 W/m2 BKN
07:10 10.4 °C 8.0 °C 1013.8 hPa Calm     85 % 0.0 mm 16.0 W/m2 BKN
07:15 10.5 °C 8.1 °C 1013.8 hPa Calm     85 % 0.0 mm 19.0 W/m2 BKN
07:20 10.7 °C 8.3 °C 1013.8 hPa Calm     85 % 0.0 mm 26.0 W/m2 BKN
07:25 10.9 °C 8.3 °C 1014.1 hPa Calm     84 % 0.0 mm 28.0 W/m2 BKN
07:30 10.9 °C 8.3 °C 1014.1 hPa SE 3.7 km/h 3.7 km/h 84 % 0.0 mm 47.0 W/m2 SCT
07:35 11.1 °C 8.3 °C 1014.1 hPa Calm     83 % 0.0 mm 62.0 W/m2 SCT
07:40 11.3 °C 8.6 °C 1014.1 hPa Calm     83 % 0.0 mm 77.0 W/m2 FEW
07:45 11.6 °C 8.8 °C 1014.1 hPa Calm     83 % 0.0 mm 91.0 W/m2 FEW
07:50 12.0 °C 9.0 °C 1014.1 hPa Calm     82 % 0.0 mm 107.0 W/m2 CLR
07:55 12.5 °C 9.3 °C 1014.4 hPa Calm     81 % 0.0 mm 123.0 W/m2 CLR
08:00 13.0 °C 9.6 °C 1014.4 hPa Calm     80 % 0.0 mm 142.0 W/m2 CLR
08:05 13.6 °C 9.8 °C 1014.4 hPa Calm     78 % 0.0 mm 160.0 W/m2 CLR
08:10 14.0 °C 9.8 °C 1014.4 hPa Calm     76 % 0.0 mm 178.0 W/m2 CLR
08:15 14.3 °C 9.9 °C 1014.4 hPa Calm     75 % 0.0 mm 195.0 W/m2 CLR
08:20 14.7 °C 10.1 °C 1014.8 hPa Calm     74 % 0.0 mm 216.0 W/m2 CLR
08:25 15.1 °C 10.3 °C 1014.8 hPa Calm     73 % 0.0 mm 232.0 W/m2 CLR
08:30 15.4 °C 10.4 °C 1014.4 hPa Calm     72 % 0.0 mm 253.0 W/m2 CLR
08:35 15.8 °C 10.4 °C 1014.8 hPa Calm     70 % 0.0 mm 258.0 W/m2 CLR
08:40 16.2 °C 10.7 °C 1014.8 hPa Calm     70 % 0.0 mm 279.0 W/m2 CLR
08:45 16.6 °C 10.6 °C 1014.8 hPa WNW 9.7 km/h 9.7 km/h 68 % 0.0 mm 339.0 W/m2 CLR
08:50 17.1 °C 10.7 °C 1014.8 hPa NW 14.5 km/h 14.5 km/h 66 % 0.0 mm 353.0 W/m2 CLR
08:55 17.4 °C 10.7 °C 1014.8 hPa West 12.9 km/h 12.9 km/h 65 % 0.0 mm 134.0 W/m2 CLR
09:00 17.6 °C 10.5 °C 1014.8 hPa West 14.8 km/h 14.8 km/h 63 % 0.0 mm 355.0 W/m2 CLR
09:05 17.8 °C 10.4 °C 1014.8 hPa WNW 13.0 km/h 13.0 km/h 62 % 0.0 mm 285.0 W/m2 CLR
09:10 17.9 °C 10.6 °C 1014.8 hPa NW 9.3 km/h 9.3 km/h 62 % 0.0 mm 380.0 W/m2 CLR
09:15 18.1 °C 10.4 °C 1014.8 hPa WNW 11.1 km/h 11.1 km/h 61 % 0.0 mm 394.0 W/m2 CLR
09:20 18.3 °C 10.7 °C 1014.8 hPa NW 13.0 km/h 13.0 km/h 61 % 0.0 mm 406.0 W/m2 CLR
09:25 18.5 °C 10.6 °C 1014.8 hPa WNW 13.0 km/h 13.0 km/h 60 % 0.0 mm 424.0 W/m2 CLR
09:30 18.6 °C 10.6 °C 1014.8 hPa West 9.3 km/h 9.3 km/h 60 % 0.0 mm 443.0 W/m2 CLR
09:35 18.7 °C 10.6 °C 1014.8 hPa WNW 11.1 km/h 11.1 km/h 59 % 0.0 mm 475.0 W/m2 CLR
09:41 18.8 °C 10.7 °C 1014.8 hPa West 11.1 km/h 11.1 km/h 59 % 0.0 mm 359.0 W/m2 CLR
09:46 18.9 °C 10.5 °C 1014.8 hPa West 11.1 km/h 11.1 km/h 58 % 0.0 mm 181.0 W/m2 CLR
09:51 19.0 °C 10.8 °C 1014.8 hPa WNW 1.9 km/h   59 % 0.0 mm 531.0 W/m2 CLR
09:56 19.4 °C 10.9 °C 1014.8 hPa SW 13.0 km/h 13.0 km/h 58 % 0.0 mm 584.0 W/m2 CLR
10:01 19.6 °C 10.8 °C 1015.1 hPa West 11.1 km/h 11.1 km/h 57 % 0.0 mm 541.0 W/m2 CLR
10:06 19.2 °C 10.2 °C 1015.1 hPa WSW 8.0 km/h 8.0 km/h 56 % 0.0 mm 606.0 W/m2 CLR
10:11 19.3 °C 11.1 °C 1015.1 hPa Calm   2.4 km/h 59 % 0.0 mm 696.0 W/m2 CLR
10:16 19.2 °C 10.5 °C 1015.1 hPa NNW 6.4 km/h 6.4 km/h 57 % 0.0 mm 165.0 W/m2 CLR
10:21 19.6 °C 10.6 °C 1015.1 hPa NW 11.1 km/h 11.1 km/h 56 % 0.0 mm 612.0 W/m2 CLR
10:26 19.8 °C 10.7 °C 1015.1 hPa NNW 6.4 km/h 6.4 km/h 56 % 0.0 mm 633.0 W/m2 CLR
10:31 20.1 °C 10.4 °C 1015.1 hPa North 5.6 km/h 5.6 km/h 54 % 0.0 mm 719.0 W/m2 CLR
10:36 20.3 °C 11.0 °C 1015.1 hPa WNW 9.7 km/h 9.7 km/h 55 % 0.0 mm 793.0 W/m2 CLR
10:41 20.0 °C 10.1 °C 1015.1 hPa WNW 16.7 km/h 16.7 km/h 53 % 0.0 mm 272.0 W/m2 CLR
10:46 20.0 °C 10.4 °C 1015.1 hPa North 6.4 km/h 6.4 km/h 54 % 0.0 mm 851.0 W/m2 CLR
10:51 20.3 °C 10.7 °C 1015.1 hPa NNW 11.1 km/h 11.1 km/h 54 % 0.0 mm 877.0 W/m2 CLR
10:56 20.3 °C 10.7 °C 1015.1 hPa North 14.8 km/h 14.8 km/h 54 % 0.0 mm 209.0 W/m2 CLR
11:01 20.3 °C 10.7 °C 1015.5 hPa North 18.5 km/h 18.5 km/h 54 % 0.0 mm 858.0 W/m2 CLR
11:06 20.3 °C 10.7 °C 1015.5 hPa West 5.6 km/h 5.6 km/h 54 % 0.0 mm 283.0 W/m2 CLR
11:11 20.3 °C 10.9 °C 1015.5 hPa Calm     55 % 0.0 mm 258.0 W/m2 CLR
11:16 20.6 °C 11.2 °C 1015.5 hPa WNW 12.9 km/h 12.9 km/h 55 % 0.0 mm 237.0 W/m2 CLR
11:21 20.2 °C 10.6 °C 1015.5 hPa NNW 11.3 km/h 11.3 km/h 54 % 0.0 mm 223.0 W/m2 CLR
11:26 20.0 °C 10.7 °C 1015.5 hPa NNW 13.0 km/h 13.0 km/h 55 % 0.0 mm 332.0 W/m2 CLR
11:31 20.3 °C 10.7 °C 1015.5 hPa WNW 17.7 km/h 17.7 km/h 54 % 0.0 mm 974.0 W/m2 CLR
11:36 20.5 °C 10.6 °C 1015.8 hPa WNW 9.3 km/h 9.3 km/h 53 % 0.0 mm 809.0 W/m2 CLR
11:41 20.7 °C 10.5 °C 1015.8 hPa WNW 16.7 km/h 16.7 km/h 52 % 0.0 mm 643.0 W/m2 CLR
11:46 20.9 °C 10.7 °C 1015.5 hPa North 14.8 km/h 14.8 km/h 52 % 0.0 mm 919.0 W/m2 CLR
11:51 20.8 °C 11.2 °C 1015.8 hPa NNW 7.4 km/h 7.4 km/h 54 % 0.0 mm 1020.0 W/m2 CLR
11:56 21.2 °C 11.3 °C 1015.5 hPa North 11.3 km/h 11.3 km/h 53 % 0.0 mm 933.0 W/m2 CLR
12:01 21.2 °C 10.6 °C 1015.5 hPa NNE 9.3 km/h 9.3 km/h 51 % 0.0 mm 517.0 W/m2 CLR
12:06 21.0 °C 10.8 °C 1015.5 hPa North 13.0 km/h 13.0 km/h 52 % 0.0 mm 185.0 W/m2 CLR
12:11 21.1 °C 10.5 °C 1015.5 hPa North 9.3 km/h 9.3 km/h 51 % 0.0 mm 1009.0 W/m2 CLR
12:16 21.1 °C 10.6 °C 1015.5 hPa NW 9.3 km/h 9.3 km/h 51 % 0.0 mm 1055.0 W/m2 CLR
12:21 21.3 °C 10.7 °C 1015.5 hPa NE 5.6 km/h 5.6 km/h 51 % 0.0 mm 1120.0 W/m2 CLR
12:26 21.6 °C 10.4 °C 1015.5 hPa NNW 9.3 km/h 9.3 km/h 49 % 0.0 mm 420.0 W/m2 CLR
12:31 21.8 °C 10.6 °C 1015.5 hPa NNW 18.5 km/h 18.5 km/h 49 % 0.0 mm 872.0 W/m2 CLR
12:36 21.4 °C 10.6 °C 1015.5 hPa NNW 13.0 km/h 13.0 km/h 50 % 0.0 mm 162.0 W/m2 CLR
12:41 21.1 °C 10.2 °C 1015.5 hPa Calm     50 % 0.0 mm 121.0 W/m2 CLR
12:46 20.7 °C 10.7 °C 1015.8 hPa ENE 11.3 km/h 11.3 km/h 53 % 0.0 mm 155.0 W/m2 CLR
12:51 20.1 °C 11.0 °C 1015.5 hPa ENE 7.4 km/h 7.4 km/h 56 % 0.0 mm 162.0 W/m2 CLR
12:52 20.0 °C 11.2 °C 1015.5 hPa ENE 11.3 km/h 11.3 km/h 57 % 0.0 mm 169.0 W/m2 CLR
12:57 19.3 °C 11.1 °C 1015.5 hPa ENE 9.3 km/h 9.3 km/h 59 % 0.0 mm 949.0 W/m2 CLR
13:02 19.7 °C 11.2 °C 1015.5 hPa NW 9.3 km/h 9.3 km/h 58 % 0.0 mm 923.0 W/m2 CLR
13:07 20.0 °C 11.7 °C 1015.5 hPa ENE 13.0 km/h 13.0 km/h 59 % 0.0 mm 919.0 W/m2 CLR
13:12 20.3 °C 11.7 °C 1015.5 hPa ENE 6.4 km/h 6.4 km/h 58 % 0.0 mm 923.0 W/m2 CLR
13:17 20.6 °C 11.2 °C 1015.1 hPa Calm     55 % 0.0 mm 930.0 W/m2 CLR
13:22 21.1 °C 10.3 °C 1015.1 hPa South 5.6 km/h 5.6 km/h 50 % 0.0 mm 942.0 W/m2 CLR
13:27 21.4 °C 9.9 °C 1015.5 hPa SSE 1.9 km/h   48 % 0.0 mm 977.0 W/m2 CLR
13:32 21.9 °C 10.7 °C 1015.5 hPa Calm     49 % 0.0 mm 1037.0 W/m2 CLR
13:37 22.6 °C 10.3 °C 1015.1 hPa NE 5.6 km/h 5.6 km/h 46 % 0.0 mm 1093.0 W/m2 CLR
13:42 22.9 °C 10.7 °C 1015.1 hPa ENE 8.0 km/h 8.0 km/h 46 % 0.0 mm 388.0 W/m2 CLR
13:47 22.8 °C 10.3 °C 1015.1 hPa Calm     45 % 0.0 mm 246.0 W/m2 CLR
13:52 22.7 °C 10.5 °C 1015.5 hPa ENE 7.4 km/h 7.4 km/h 46 % 0.0 mm 313.0 W/m2 CLR
13:57 22.5 °C 10.3 °C 1015.1 hPa ENE 9.7 km/h 9.7 km/h 46 % 0.0 mm 294.0 W/m2 CLR
14:02 22.3 °C 10.2 °C 1015.1 hPa NE 7.4 km/h   46 % 0.0 mm 294.0 W/m2 CLR
14:07 22.3 °C 10.4 °C 1015.1 hPa Calm     47 % 0.0 mm 336.0 W/m2 CLR
14:12 22.6 °C 10.3 °C 1015.1 hPa ENE 3.7 km/h 3.7 km/h 46 % 0.0 mm 260.0 W/m2 CLR
14:17 22.5 °C 9.9 °C 1014.8 hPa ENE 7.4 km/h 7.4 km/h 45 % 0.0 mm 1116.0 W/m2 CLR
14:22 22.8 °C 9.9 °C 1015.1 hPa ENE 5.6 km/h 5.6 km/h 44 % 0.0 mm 1169.0 W/m2 CLR
14:27 22.7 °C 9.8 °C 1015.1 hPa Calm     44 % 0.0 mm 323.0 W/m2 CLR
14:32 22.9 °C 10.0 °C 1015.1 hPa Calm     44 % 0.0 mm 1206.0 W/m2 CLR
14:37 23.2 °C 10.2 °C 1015.1 hPa ENE 11.1 km/h 11.1 km/h 44 % 0.0 mm 1178.0 W/m2 CLR
14:39 23.2 °C 9.9 °C 1015.1 hPa NE 1.9 km/h   43 % 0.0 mm 490.0 W/m2 CLR
14:44 23.4 °C 10.1 °C 1015.1 hPa Calm     43 % 0.0 mm 817.0 W/m2 CLR
14:49 23.4 °C 9.7 °C 1015.1 hPa ENE 1.6 km/h 1.6 km/h 42 % 0.0 mm 239.0 W/m2 CLR
14:54 23.1 °C 9.8 °C 1015.1 hPa NNW 9.7 km/h 9.7 km/h 43 % 0.0 mm 267.0 W/m2 CLR
14:59 22.9 °C 9.7 °C 1015.1 hPa NW 5.6 km/h 5.6 km/h 43 % 0.0 mm 316.0 W/m2 CLR
15:04 23.1 °C 9.5 °C 1015.1 hPa Calm     42 % 0.0 mm 1111.0 W/m2 CLR
15:09 23.8 °C 10.4 °C 1014.8 hPa Calm     43 % 0.0 mm 1046.0 W/m2 CLR
15:14 24.1 °C 9.7 °C 1015.1 hPa ENE 5.6 km/h 5.6 km/h 40 % 0.0 mm 288.0 W/m2 CLR
15:19 23.7 °C 9.6 °C 1015.1 hPa NE 13.0 km/h 13.0 km/h 41 % 0.0 mm 229.0 W/m2 CLR
15:24 23.3 °C 9.7 °C 1015.1 hPa Calm     42 % 0.0 mm 179.0 W/m2 CLR
15:29 23.2 °C 9.6 °C 1015.1 hPa Calm     42 % 0.0 mm 230.0 W/m2 CLR
15:34 23.2 °C 9.2 °C 1014.8 hPa Calm     41 % 0.0 mm 944.0 W/m2 CLR
15:39 23.6 °C 10.3 °C 1015.1 hPa East 14.8 km/h 14.8 km/h 43 % 0.0 mm 865.0 W/m2 CLR
15:44 23.8 °C 9.8 °C 1015.1 hPa East 5.6 km/h   41 % 0.0 mm 860.0 W/m2 CLR
15:49 24.1 °C 9.6 °C 1015.1 hPa NE 11.1 km/h 11.1 km/h 40 % 0.0 mm 874.0 W/m2 CLR
15:54 24.2 °C 9.8 °C 1015.1 hPa NE 7.4 km/h 7.4 km/h 40 % 0.0 mm 946.0 W/m2 CLR
15:59 24.2 °C 9.8 °C 1014.8 hPa Calm     40 % 0.0 mm 946.0 W/m2 CLR
16:04 24.3 °C 9.5 °C 1014.8 hPa Calm     39 % 0.0 mm 1048.0 W/m2 CLR
16:09 24.0 °C 9.2 °C 1014.8 hPa ENE 6.4 km/h 6.4 km/h 39 % 0.0 mm 302.0 W/m2 CLR
16:14 23.9 °C 9.1 °C 1014.8 hPa ENE 12.9 km/h 12.9 km/h 39 % 0.0 mm 385.0 W/m2 CLR
16:19 23.6 °C 8.8 °C 1014.8 hPa SE 7.4 km/h 7.7 km/h 39 % 0.0 mm 251.0 W/m2 CLR
16:25 22.6 °C 11.1 °C 1014.8 hPa SE 14.8 km/h 14.8 km/h 48 % 0.0 mm 255.0 W/m2 CLR
16:30 22.1 °C 11.2 °C 1014.8 hPa SSE 16.7 km/h 16.7 km/h 50 % 0.0 mm 181.0 W/m2 CLR
16:35 21.9 °C 11.1 °C 1014.8 hPa SE 18.5 km/h 18.5 km/h 50 % 0.0 mm 193.0 W/m2 CLR
16:40 22.0 °C 11.1 °C 1014.8 hPa SE 16.7 km/h 16.7 km/h 50 % 0.0 mm 178.0 W/m2 CLR
16:45 22.0 °C 11.1 °C 1014.8 hPa SE 29.6 km/h 29.6 km/h 50 % 0.0 mm 158.0 W/m2 CLR
16:50 21.9 °C 11.1 °C 1014.8 hPa South 20.4 km/h 20.4 km/h 50 % 0.0 mm 258.0 W/m2 CLR
16:55 22.1 °C 10.6 °C 1014.8 hPa South 14.8 km/h 15.9 km/h 48 % 0.0 mm 257.0 W/m2 CLR
17:00 21.9 °C 10.4 °C 1014.8 hPa South 18.5 km/h 18.5 km/h 48 % 0.0 mm 803.0 W/m2 CLR
17:05 21.8 °C 10.3 °C 1014.8 hPa SSE 18.5 km/h 18.5 km/h 48 % 0.0 mm 162.0 W/m2 CLR
17:10 21.7 °C 9.8 °C 1014.8 hPa South 16.7 km/h 16.7 km/h 47 % 0.0 mm 200.0 W/m2 CLR
17:15 21.8 °C 10.3 °C 1014.8 hPa South 14.8 km/h 14.8 km/h 48 % 0.0 mm 160.0 W/m2 CLR
17:20 21.8 °C 10.3 °C 1014.8 hPa SSW 14.8 km/h 14.8 km/h 48 % 0.0 mm 160.0 W/m2 CLR
17:25 21.7 °C 10.2 °C 1014.8 hPa South 12.9 km/h 12.9 km/h 48 % 0.0 mm 192.0 W/m2 CLR
17:30 21.7 °C 10.2 °C 1014.8 hPa South 16.7 km/h 16.7 km/h 48 % 0.0 mm 262.0 W/m2 CLR
17:35 21.9 °C 10.7 °C 1014.8 hPa SSW 13.0 km/h 14.3 km/h 49 % 0.0 mm 246.0 W/m2 CLR
17:40 21.9 °C 10.7 °C 1014.8 hPa South 14.8 km/h 14.8 km/h 49 % 0.0 mm 299.0 W/m2 CLR
17:45 22.1 °C 10.8 °C 1014.8 hPa South 13.0 km/h 13.0 km/h 49 % 0.0 mm 318.0 W/m2 CLR
17:50 22.1 °C 10.6 °C 1014.8 hPa South 16.7 km/h 16.7 km/h 48 % 0.0 mm 262.0 W/m2 CLR
17:55 22.2 °C 10.7 °C 1014.8 hPa SSW 11.1 km/h 11.1 km/h 48 % 0.0 mm 190.0 W/m2 CLR
18:00 22.2 °C 10.4 °C 1014.8 hPa South 16.7 km/h 16.7 km/h 47 % 0.0 mm 279.0 W/m2 CLR
18:05 22.3 °C 10.4 °C 1014.8 hPa SSE 16.7 km/h 16.7 km/h 47 % 0.0 mm 283.0 W/m2 CLR
18:10 22.3 °C 10.4 °C 1014.8 hPa South 12.9 km/h 12.9 km/h 47 % 0.0 mm 141.0 W/m2 CLR
18:15 22.3 °C 10.4 °C 1014.8 hPa South 9.7 km/h 9.7 km/h 47 % 0.0 mm 156.0 W/m2 CLR
18:20 22.3 °C 10.4 °C 1015.1 hPa SSW 11.1 km/h 11.1 km/h 47 % 0.0 mm 195.0 W/m2 CLR
18:25 22.4 °C 10.5 °C 1014.8 hPa South 11.1 km/h 11.1 km/h 47 % 0.0 mm 227.0 W/m2 CLR
18:30 22.7 °C 10.4 °C 1015.1 hPa SSW 11.1 km/h 11.1 km/h 46 % 0.0 mm 209.0 W/m2 CLR
18:35 22.7 °C 10.5 °C 1015.1 hPa WSW 8.0 km/h 8.0 km/h 46 % 0.0 mm 169.0 W/m2 CLR
18:40 22.7 °C 10.5 °C 1015.1 hPa WSW 5.6 km/h 5.6 km/h 46 % 0.0 mm 207.0 W/m2 CLR
18:45 22.7 °C 10.5 °C 1015.1 hPa South 7.4 km/h 7.4 km/h 46 % 0.0 mm 114.0 W/m2 CLR
18:50 22.7 °C 10.2 °C 1015.1 hPa Calm     45 % 0.0 mm 132.0 W/m2 CLR
18:55 22.8 °C 10.2 °C 1015.1 hPa West 3.7 km/h   45 % 0.0 mm 223.0 W/m2 CLR
19:00 23.2 °C 10.2 °C 1015.1 hPa Calm     44 % 0.0 mm 482.0 W/m2 CLR
19:05 23.9 °C 10.2 °C 1015.1 hPa Calm     42 % 0.0 mm 438.0 W/m2 CLR
19:10 24.2 °C 11.5 °C 1015.1 hPa NNW 16.7 km/h 16.7 km/h 45 % 0.0 mm 399.0 W/m2 CLR
19:15 23.9 °C 11.3 °C 1015.1 hPa NNE 11.1 km/h 11.1 km/h 45 % 0.0 mm 353.0 W/m2 CLR
19:21 23.9 °C 11.6 °C 1015.1 hPa NW 11.1 km/h 11.1 km/h 46 % 0.0 mm 346.0 W/m2 CLR
19:26 23.5 °C 11.8 °C 1015.1 hPa NNW 13.0 km/h 13.0 km/h 48 % 0.0 mm 104.0 W/m2 CLR
19:31 22.8 °C 11.6 °C 1015.1 hPa NNW 7.4 km/h 7.4 km/h 49 % 0.0 mm 72.0 W/m2 CLR
19:36 22.4 °C 11.5 °C 1015.1 hPa NNW 6.4 km/h 6.4 km/h 50 % 0.0 mm 47.0 W/m2 FEW
19:41 22.2 °C 11.3 °C 1015.5 hPa Calm     50 % 0.0 mm 54.0 W/m2 SCT
19:46 22.1 °C 10.9 °C 1015.5 hPa South 12.9 km/h 12.9 km/h 49 % 0.0 mm 60.0 W/m2 SCT
19:51 21.8 °C 11.2 °C 1015.5 hPa SSW 11.3 km/h 11.3 km/h 51 % 0.0 mm 47.0 W/m2 SCT
19:56 21.6 °C 11.3 °C 1015.8 hPa South 14.8 km/h 14.8 km/h 52 % 0.0 mm 35.0 W/m2 SCT
20:01 21.4 °C 11.4 °C 1015.8 hPa SSW 13.0 km/h 13.0 km/h 53 % 0.0 mm 25.0 W/m2 BKN
20:06 21.4 °C 11.4 °C 1016.1 hPa SW 14.8 km/h 14.8 km/h 53 % 0.0 mm 19.0 W/m2 BKN
20:11 21.4 °C 11.1 °C 1016.1 hPa WSW 14.8 km/h 14.8 km/h 52 % 0.0 mm 30.0 W/m2 BKN
20:16 20.9 °C 12.4 °C 1016.5 hPa NW 13.0 km/h 13.0 km/h 58 % 0.0 mm 30.0 W/m2 BKN
20:21 20.4 °C 12.6 °C 1016.5 hPa NW 5.6 km/h 5.6 km/h 61 % 0.0 mm 37.0 W/m2 BKN
20:26 20.2 °C 12.7 °C 1016.5 hPa NNW 5.6 km/h 5.6 km/h 62 % 0.0 mm 49.0 W/m2 SCT
20:31 20.2 °C 12.7 °C 1016.5 hPa Calm     62 % 0.0 mm 49.0 W/m2 SCT
20:36 20.2 °C 12.9 °C 1016.5 hPa North 11.1 km/h 11.1 km/h 63 % 0.0 mm 33.0 W/m2 BKN
20:41 19.9 °C 13.2 °C 1016.8 hPa ENE 3.2 km/h 5.1 km/h 65 % 0.0 mm 16.0 W/m2 BKN
20:47 19.6 °C 12.8 °C 1016.8 hPa NE 5.6 km/h   65 % 0.0 mm 11.0 W/m2 BKN
20:52 19.2 °C 12.7 °C 1017.2 hPa Calm     66 % 0.0 mm 9.0 W/m2 BKN
20:57 18.9 °C 12.9 °C 1017.2 hPa Calm     68 % 0.0 mm 5.0 W/m2 BKN
21:02 18.7 °C 12.7 °C 1017.2 hPa Calm     68 % 0.0 mm 5.0 W/m2 OVC
21:07 18.5 °C 12.7 °C 1017.5 hPa Calm     69 % 0.0 mm 0.0 W/m2 OVC
21:12 18.4 °C 12.8 °C 1017.5 hPa Calm     70 % 0.0 mm 0.0 W/m2 OVC
21:17 18.3 °C 13.2 °C 1017.5 hPa Calm     72 % 0.0 mm 0.0 W/m2 OVC
21:22 18.2 °C 13.1 °C 1017.5 hPa Calm     72 % 0.0 mm 0.0 W/m2 CLR
21:27 18.0 °C 13.3 °C 1017.5 hPa Calm     74 % 0.0 mm 0.0 W/m2 CLR
21:32 17.8 °C 13.1 °C 1017.8 hPa Calm     74 % 0.0 mm 0.0 W/m2 CLR
21:37 17.8 °C 13.1 °C 1017.8 hPa Calm     74 % 0.0 mm 0.0 W/m2 CLR
21:42 17.7 °C 13.2 °C 1017.8 hPa Calm     75 % 0.0 mm 0.0 W/m2 CLR
21:54 17.7 °C 13.2 °C 1018.2 hPa Calm     75 % 0.0 mm 0.0 W/m2 CLR
21:59 17.7 °C 13.2 °C 1018.2 hPa Calm     75 % 0.0 mm 0.0 W/m2 CLR
22:04 17.7 °C 13.4 °C 1018.5 hPa SW 14.8 km/h 14.8 km/h 76 % 0.3 mm 0.0 W/m2 RA
22:09 17.5 °C 13.2 °C 1018.2 hPa Calm     76 % 0.3 mm 0.0 W/m2
22:14 17.4 °C 13.3 °C 1018.2 hPa Calm     77 % 0.5 mm 0.0 W/m2 RA
22:19 17.4 °C 13.1 °C 1018.2 hPa Calm     76 % 0.5 mm 0.0 W/m2 CLR
22:24 17.4 °C 13.5 °C 1018.2 hPa Calm     78 % 0.5 mm 0.0 W/m2 CLR
22:29 17.3 °C 13.8 °C 1018.2 hPa ENE 9.7 km/h 9.7 km/h 80 % 0.5 mm 0.0 W/m2 CLR
22:35 17.0 °C 13.5 °C 1018.2 hPa Calm     80 % 0.5 mm 0.0 W/m2 CLR
22:40 16.9 °C 13.7 °C 1018.2 hPa Calm     81 % 0.8 mm 0.0 W/m2 RA
22:45 16.7 °C 13.8 °C 1018.5 hPa ENE 11.1 km/h 11.1 km/h 83 % 0.8 mm 0.0 W/m2 CLR
22:50 16.4 °C 13.7 °C 1018.5 hPa WSW 7.4 km/h   84 % 0.8 mm 0.0 W/m2 CLR
22:55 16.3 °C 13.6 °C 1018.5 hPa North 11.1 km/h 11.1 km/h 84 % 0.8 mm 0.0 W/m2 CLR
23:00 16.1 °C 13.6 °C 1018.5 hPa SSW 7.4 km/h 7.4 km/h 85 % 0.8 mm 0.0 W/m2 CLR
23:05 15.9 °C 13.4 °C 1018.5 hPa Calm     85 % 0.5 mm 0.0 W/m2 CLR
23:10 15.8 °C 13.3 °C 1018.8 hPa SSW 7.4 km/h 7.4 km/h 85 % 0.5 mm 0.0 W/m2 CLR
23:15 15.7 °C 13.2 °C 1018.8 hPa Calm     85 % 0.3 mm 0.0 W/m2 CLR
23:20 15.6 °C 13.1 °C 1018.8 hPa Calm     85 % 0.3 mm 0.0 W/m2 CLR
23:25 15.5 °C 13.0 °C 1018.8 hPa Calm     85 % 0.3 mm 0.0 W/m2 CLR
23:30 15.4 °C 12.7 °C 1019.2 hPa Calm     84 % 0.3 mm 0.0 W/m2 CLR
23:35 15.4 °C 12.7 °C 1019.2 hPa Calm     84 % 0.3 mm 0.0 W/m2 CLR
23:40 15.4 °C 12.6 °C 1019.2 hPa Calm     83 % 0.0 mm 0.0 W/m2 CLR
23:45 15.5 °C 12.3 °C 1019.2 hPa Calm     81 % 0.0 mm 0.0 W/m2 CLR
23:50 15.8 °C 12.3 °C 1019.2 hPa Calm     80 % 0.0 mm 0.0 W/m2 CLR
23:55 15.8 °C 12.5 °C 1019.2 hPa Calm     81 % 0.0 mm 0.0 W/m2 CLR
Lo Temps de Massalio
Compliments of Weather Underground - 1.25 mb